When you browse on this site, cookies collect data to enhance your experience and personalize the content and advertising you see.
Visit our Privacy Policy to learn more. By continuing to use the site, you agree to this use of cookies and data.
  • In Denmark
  • List of Countries
  • For 7 days
  • Water Temperature
  • Satellite Maps
  • Weather Map
  • Weather Widgets
  • user-avatar
    Login

    Hourly Weather Astafevo

    Today, 23 May, Thursday

    Time Temperature Precipitation Wind Pressure Humidity
    00:00 +15°C° 0 mm 2 mps 737 mmHg 94%
    01:00 +15°C° 0 mm 2 mps 737 mmHg 94%
    02:00 +15°C° 0 mm 2 mps 737 mmHg 95%
    03:00 +15°C° 0 mm 2 mps 737 mmHg 94%
    04:00 +15°C° 0 mm 2 mps 737 mmHg 94%
    05:00 +15°C° 0 mm 2 mps 737 mmHg 94%
    06:00 +16°C° 0 mm 2 mps 737 mmHg 88%
    07:00 +18°C° 0 mm 2 mps 737 mmHg 83%
    08:00 +20°C° 0 mm 2 mps 737 mmHg 77%
    09:00 +21°C° 0 mm 2 mps 736 mmHg 71%
    10:00 +23°C° 0 mm 2 mps 736 mmHg 65%
    11:00 +24°C° 0 mm 2 mps 736 mmHg 58%
    12:00 +25°C° 0.2 mm 3 mps 736 mmHg 58%
    13:00 +25°C° 0.2 mm 3 mps 736 mmHg 58%
    14:00 +25°C° 0.2 mm 3 mps 736 mmHg 58%
    15:00 +25°C° 0.3 mm 3 mps 736 mmHg 62%
    16:00 +25°C° 0.3 mm 3 mps 736 mmHg 67%
    17:00 +24°C° 0.3 mm 2 mps 736 mmHg 71%
    18:00 +21°C° 0.1 mm 2 mps 736 mmHg 75%
    19:00 +20°C° 0.1 mm 2 mps 736 mmHg 80%
    20:00 +18°C° 0.1 mm 2 mps 736 mmHg 85%
    21:00 +17°C° 0 mm 2 mps 736 mmHg 86%
    22:00 +17°C° 0 mm 2 mps 736 mmHg 88%
    23:00 +16°C° 0 mm 2 mps 736 mmHg 90%

    Tomorrow, 24 May, Friday

    Time Temperature Precipitation Wind Pressure Humidity
    00:00 +16°C° 0 mm 2 mps 736 mmHg 91%
    01:00 +15°C° 0 mm 2 mps 736 mmHg 92%
    02:00 +15°C° 0 mm 2 mps 737 mmHg 94%
    03:00 +15°C° 0 mm 2 mps 737 mmHg 94%
    04:00 +15°C° 0 mm 1 mps 737 mmHg 94%
    05:00 +16°C° 0 mm 1 mps 737 mmHg 94%
    06:00 +18°C° 0 mm 1 mps 738 mmHg 90%
    07:00 +18°C° 0 mm 2 mps 738 mmHg 86%
    08:00 +19°C° 0 mm 2 mps 738 mmHg 83%
    09:00 +19°C° 0.2 mm 3 mps 738 mmHg 83%
    10:00 +19°C° 0.2 mm 4 mps 738 mmHg 84%
    11:00 +19°C° 0.2 mm 4 mps 738 mmHg 84%
    12:00 +19°C° 0 mm 4 mps 739 mmHg 83%
    13:00 +19°C° 0 mm 4 mps 739 mmHg 82%
    14:00 +19°C° 0 mm 4 mps 739 mmHg 80%
    15:00 +19°C° 0 mm 4 mps 739 mmHg 82%
    16:00 +18°C° 0 mm 4 mps 738 mmHg 84%
    17:00 +18°C° 0 mm 4 mps 738 mmHg 86%
    18:00 +17°C° 0 mm 4 mps 738 mmHg 89%
    19:00 +16°C° 0 mm 3 mps 739 mmHg 92%
    20:00 +14°C° 0 mm 3 mps 739 mmHg 94%
    21:00 +14°C° 0 mm 3 mps 739 mmHg 95%
    22:00 +14°C° 0 mm 3 mps 738 mmHg 95%
    23:00 +14°C° 0 mm 3 mps 738 mmHg 96%

    Day after tomorrow, 25 May, Saturday

    Time Temperature Precipitation Wind Pressure Humidity
    00:00 +14°C° 0 mm 3 mps 738 mmHg 96%
    01:00 +14°C° 0 mm 4 mps 738 mmHg 96%
    02:00 +13°C° 0 mm 4 mps 738 mmHg 97%
    03:00 +14°C° 0.5 mm 4 mps 738 mmHg 96%
    04:00 +14°C° 0.5 mm 4 mps 738 mmHg 96%
    05:00 +16°C° 0.5 mm 3 mps 738 mmHg 96%
    06:00 +16°C° 0.1 mm 3 mps 738 mmHg 94%
    07:00 +17°C° 0.1 mm 3 mps 737 mmHg 93%
    08:00 +17°C° 0.1 mm 3 mps 737 mmHg 91%
    09:00 +18°C° 0 mm 3 mps 737 mmHg 88%
    10:00 +19°C° 0 mm 3 mps 737 mmHg 85%
    11:00 +20°C° 0 mm 3 mps 736 mmHg 82%
    12:00 +20°C° 1.7 mm 3 mps 736 mmHg 81%
    13:00 +21°C° 1.7 mm 3 mps 736 mmHg 80%
    14:00 +21°C° 1.7 mm 3 mps 736 mmHg 78%
    15:00 +21°C° 0.3 mm 3 mps 735 mmHg 80%
    16:00 +20°C° 0.3 mm 3 mps 735 mmHg 81%
    17:00 +20°C° 0.3 mm 3 mps 734 mmHg 82%
    18:00 +19°C° 0.7 mm 2 mps 734 mmHg 85%
    19:00 +18°C° 0.7 mm 2 mps 734 mmHg 88%
    20:00 +17°C° 0.7 mm 2 mps 734 mmHg 91%
    21:00 +16°C° 0 mm 2 mps 733 mmHg 91%
    22:00 +16°C° 0 mm 2 mps 733 mmHg 92%
    23:00 +16°C° 0 mm 2 mps 733 mmHg 93%

    26 May, Sunday

    Time Temperature Precipitation Wind Pressure Humidity
    00:00 +15°C° 0.2 mm 1 mps 733 mmHg 93%
    01:00 +15°C° 0.2 mm 1 mps 733 mmHg 93%
    02:00 +14°C° 0.2 mm 1 mps 733 mmHg 94%
    03:00 +14°C° 0.4 mm 1 mps 733 mmHg 94%
    04:00 +15°C° 0.4 mm 2 mps 733 mmHg 95%
    05:00 +15°C° 0.4 mm 2 mps 733 mmHg 95%
    06:00 +16°C° 0.4 mm 2 mps 733 mmHg 94%
    07:00 +17°C° 0.4 mm 2 mps 733 mmHg 92%
    08:00 +17°C° 0.4 mm 3 mps 734 mmHg 90%
    09:00 +18°C° 0.1 mm 3 mps 734 mmHg 83%
    10:00 +19°C° 0.1 mm 4 mps 734 mmHg 77%
    11:00 +20°C° 0.1 mm 5 mps 734 mmHg 70%
    12:00 +21°C° 0 mm 4 mps 734 mmHg 66%
    13:00 +21°C° 0 mm 4 mps 734 mmHg 62%
    14:00 +22°C° 0 mm 4 mps 734 mmHg 57%
    15:00 +21°C° 0 mm 4 mps 734 mmHg 61%
    16:00 +21°C° 0 mm 4 mps 734 mmHg 64%
    17:00 +20°C° 0 mm 3 mps 734 mmHg 67%
    18:00 +18°C° 0 mm 3 mps 734 mmHg 72%
    19:00 +17°C° 0 mm 3 mps 734 mmHg 76%
    20:00 +15°C° 0 mm 2 mps 735 mmHg 81%
    21:00 +14°C° 0 mm 2 mps 735 mmHg 83%
    22:00 +13°C° 0 mm 2 mps 734 mmHg 86%
    23:00 +12°C° 0 mm 2 mps 734 mmHg 89%

    27 May, Monday

    Time Temperature Precipitation Wind Pressure Humidity
    00:00 +12°C° 0 mm 2 mps 734 mmHg 89%
    01:00 +11°C° 0 mm 3 mps 734 mmHg 89%
    02:00 +11°C° 0 mm 3 mps 734 mmHg 90%
    03:00 +11°C° 1.9 mm 4 mps 734 mmHg 91%
    04:00 +11°C° 1.9 mm 4 mps 734 mmHg 92%
    05:00 +10°C° 1.9 mm 5 mps 734 mmHg 93%
    06:00 +12°C° 0.2 mm 5 mps 734 mmHg 89%
    07:00 +11°C° 0.2 mm 6 mps 734 mmHg 84%
    08:00 +11°C° 0.2 mm 7 mps 735 mmHg 80%
    09:00 +11°C° 0.9 mm 7 mps 735 mmHg 79%
    10:00 +11°C° 0.9 mm 8 mps 736 mmHg 78%
    11:00 +11°C° 0.9 mm 8 mps 736 mmHg 78%
    12:00 +12°C° 0.3 mm 8 mps 736 mmHg 73%
    13:00 +13°C° 0.3 mm 8 mps 737 mmHg 68%
    14:00 +13°C° 0.3 mm 8 mps 737 mmHg 63%
    15:00 +14°C° 0 mm 7 mps 738 mmHg 64%
    16:00 +14°C° 0 mm 6 mps 738 mmHg 65%
    17:00 +14°C° 0 mm 6 mps 739 mmHg 66%
    18:00 +13°C° 0 mm 5 mps 739 mmHg 70%
    19:00 +12°C° 0 mm 5 mps 740 mmHg 74%
    20:00 +10°C° 0 mm 4 mps 741 mmHg 79%
    21:00 +10°C° 0 mm 4 mps 741 mmHg 82%
    22:00 +8°C° 0 mm 4 mps 742 mmHg 86%
    23:00 +8°C° 0 mm 3 mps 742 mmHg 89%

    28 May, Tuesday

    Time Temperature Precipitation Wind Pressure Humidity
    00:00 +8°C° 0 mm 3 mps 742 mmHg 91%
    01:00 +8°C° 0 mm 3 mps 743 mmHg 93%
    02:00 +7°C° 0 mm 3 mps 743 mmHg 94%
    03:00 +8°C° 0 mm 3 mps 743 mmHg 94%
    04:00 +8°C° 0 mm 3 mps 744 mmHg 93%
    05:00 +9°C° 0 mm 3 mps 744 mmHg 92%
    06:00 +11°C° 0 mm 3 mps 744 mmHg 86%
    07:00 +13°C° 0 mm 3 mps 744 mmHg 80%
    08:00 +16°C° 0 mm 3 mps 745 mmHg 74%
    09:00 +17°C° 0 mm 3 mps 745 mmHg 70%
    10:00 +18°C° 0 mm 3 mps 745 mmHg 66%
    11:00 +20°C° 0 mm 3 mps 745 mmHg 62%
    12:00 +20°C° 0 mm 4 mps 745 mmHg 62%
    13:00 +21°C° 0 mm 4 mps 745 mmHg 61%
    14:00 +21°C° 0 mm 4 mps 744 mmHg 61%
    15:00 +21°C° 0 mm 4 mps 744 mmHg 65%
    16:00 +21°C° 0 mm 3 mps 744 mmHg 69%
    17:00 +20°C° 0 mm 3 mps 744 mmHg 74%
    18:00 +19°C° 0 mm 3 mps 744 mmHg 77%
    19:00 +18°C° 0 mm 3 mps 744 mmHg 81%
    20:00 +16°C° 0 mm 3 mps 744 mmHg 85%
    21:00 +16°C° 0 mm 3 mps 745 mmHg 84%
    22:00 +16°C° 0 mm 3 mps 745 mmHg 84%
    23:00 +16°C° 0 mm 2 mps 745 mmHg 83%
    Show more